Regional Weather Roundup
Issued by NWS

Home | Current Version | Previous Version | Text Only | Print | Product List | Glossary On
Versions: 1 2 3 4 5 6 7 8 9 10 11 12 13 14 15 16 17 18 19 20 21 22 23 24 25 26 27
000
ASUS45 KREV 170210
RWRNV
NEVADA REGIONAL WEATHER ROUNDUP
NATIONAL WEATHER SERVICE RENO NV
600 PM PST SAT DEC 16 2017

NOTE: "FAIR" INDICATES FEW OR NO CLOUDS BELOW 12,000 FEET WITH NO
SIGNIFICANT WEATHER AND/OR OBSTRUCTIONS TO VISIBILITY.

NVZ001-003-004-170300-
WESTERN NEVADA

CITY           SKY/WX    TMP DP  RH WIND       PRES   REMARKS
RENO           PTCLDY    32  17  54 SE5       30.15R
CARSON CITY    MOCLDY    28  16  59 N7        30.16R
MINDEN         MOCLDY    28  16  59 N7        30.15R
PYRAMID LAKE     N/A     39 N/A N/A NE15        N/A
FALLON         MOCLDY    32  14  47 N9        30.13R
LOVELOCK       PTCLDY    30  16  56 NE8       30.14R
HAWTHORNE      PTCLDY    32  14  47 N15G22    30.12R
$$

NVZ002-CAZ072-073-170300-
NORTHERN AND CENTRAL SIERRA

CITY           SKY/WX    TMP DP  RH WIND       PRES   REMARKS
S. LAKE TAHOE  PTCLDY    26  12  55 CALM      30.04R
TRUCKEE        CLEAR     27  14  59 N10       30.08R
SQUAW VLY 8000   N/A     18  14  86 NE14        N/A
SUSANVILLE     CLEAR    N/A N/A N/A E9        30.15R
BLUE CANYON    CLEAR     34   8  33 NE17G35   29.90F
MAMMOTH LAKES  FAIR      23  11  61 NW9       30.05R
$$

NVZ030-031-036-170300-
NORTHERN NEVADA

CITY           SKY/WX    TMP DP  RH WIND       PRES   REMARKS
ELKO           CLOUDY    30  18  60 NW6       30.07R
WINNEMUCCA     CLEAR     28  17  63 NE7       30.14R
WENDOVER       PTCLDY    30  17  58 E10       30.03R
$$

NVZ035-037-170300-
CENTRAL NEVADA

CITY           SKY/WX    TMP DP  RH WIND       PRES   REMARKS
ELY            CLOUDY    27  22  81 N7        29.96R
EUREKA           N/A     24  15  68 N12       30.04R
$$

NVZ013-014-170300-
SOUTH CENTRAL NEVADA

CITY           SKY/WX    TMP DP  RH WIND       PRES   REMARKS
TONOPAH        PTCLDY    32  14  47 N16       29.99R
$$

NVZ017-020-022-170300-
SOUTHERN NEVADA

CITY           SKY/WX    TMP DP  RH WIND       PRES   REMARKS
LAS VEGAS      CLOUDY    59  23  25 N10       29.78R
N. LAS VEGAS   CLOUDY    58  19  22 NE8       29.78R
NELLIS AFB     CLOUDY    53  16  23 N3        29.78R
HENDERSON      CLOUDY    57  29  34 N9        29.80R
MERCURY        CLOUDY    50  24  36 NE21G30   29.85R
$$




USA.gov is the U.S. government's official web portal to all federal, state and local government web resources and services.